INTELSAT 15 (IS-15)

Last updated on Thu Apr 09 2026 00:02:48 GMT+0000 (Coordinated Universal Time)

1 36106U 09067A 26098.54279964 -.00000183 00000+0 00000+0 0 9990 2 36106 0.0130 176.7630 0002550 219.9426 80.6485 1.00271299 40531
UTC large
Height (km)
Speed (km/s)
/
Latitude / Longitude
Inclination (degrees)
Orbital Period (minutes)
Azimuth
Elevation
Range (km)
Doppler Factor

Next 0 passes for location: London (51.5072 / 0.1276)

Sorry there are no passes over London.